Location: Laura�t
(43.9341°N, 0.2497°E)
Time: 18:39:00
(UTC+00:00)

Ariane Rocket - Visible Passes

Search period start: 16 June 2021 00:00
Search period end: 26 June 2021 00:00
Orbit: 761 x 769 km, 98.7° (Epoch: 15 June)

Date Brightness Start Highest point End Pass type
(mag) Time Alt. Az. Time Alt. Az. Time Alt. Az.
16 Jun 3.1 20:12:41 10° SSE 20:17:46 85° WSW 20:22:55 10° NNW visible
16 Jun 5.8 21:56:50 10° W 21:57:29 10° W 21:58:07 10° W visible
17 Jun 5.0 21:16:11 10° SW 21:20:12 23° W 21:24:15 10° NW visible
18 Jun 3.8 20:38:12 10° S 20:43:08 50° W 20:48:07 10° NNW visible
19 Jun 5.5 21:43:18 10° WSW 21:45:49 14° W 21:48:20 10° WNW visible
20 Jun 4.7 21:04:11 10° SSW 21:08:37 30° W 21:13:05 10° NW visible
21 Jun 3.4 20:26:34 10° S 20:31:37 65° WSW 20:36:42 10° NNW visible
22 Jun 5.4 21:30:48 10° SW 21:34:10 18° W 21:37:35 10° NW visible
23 Jun 4.3 20:52:20 10° SSW 20:57:02 38° W 21:01:47 10° NNW visible
24 Jun 3.1 20:15:01 10° SSE 20:20:07 82° WSW 20:25:15 10° NNW visible
25 Jun 5.1 21:18:36 10° SW 21:22:33 23° W 21:26:33 10° NW visible
